[[{"header":{"parameterUnit":"m.s-1","parameterCategory":1,"la1":30.2991,"la2":30.254,"lo1":-89.0895,"lo2":-89.0444,"dy":0.0017,"dx":0.0017,"nx":28,"ny":28,"refTime":"2025-07-10T09:00:00:Z","depth":0,"parameterNumber":2,"parameterNumberName":"U-component_of_WINDS"},"data":[0,0,0,0,0,0,0,0,0,0,0,0,0,0,0,0,0,0,0,0,0,0,0,0,0,0,0,0,0,0,0,0,0,0,0,0,0,0,0,0,0,0,0,0,0,0,0,0,0,0,0,0,0,0,0,0,0,0,3.6182,3.6184,0,3.6323,3.6325,3.6327,3.6233,3.6228,3.6224,3.622,3.6371,3.6379,3.6387,0,0,0,0,0,0,0,0,0,0,0,0,0,3.5836,3.5843,3.6182,3.6184,3.6186,3.6323,3.6325,3.6327,3.6234,3.6228,3.6223,3.6218,3.6369,3.6378,3.6388,0,0,0,0,0,0,0,0,0,0,0,0,0,3.5983,3.5845,3.6182,3.6155,3.6154,3.6323,3.6325,3.6328,3.6235,3.6228,3.6222,3.6216,3.6365,3.6377,3.6389,3.6593,0,0,3.6426,3.6431,0,0,0,0,0,0,0,0,3.5975,3.5996,3.6158,3.6158,3.6157,3.6254,3.6258,3.6417,3.6236,3.6205,3.622,3.6212,3.6338,3.6352,3.6393,3.66,3.6607,3.6427,3.6434,3.6439,3.6443,0,0,0,0,0,0,0,3.5964,3.5989,3.6238,3.616,3.616,3.6138,3.6152,3.6288,3.6306,3.6207,3.62,3.6218,3.6336,3.6381,3.6395,3.6609,3.6427,3.6437,3.6445,3.6449,3.6989,3.6995,0,0,0,0,0,0,3.5956,3.5981,3.6234,3.6242,3.6048,3.6149,3.6165,3.6229,3.6304,3.6309,3.6223,3.6213,3.6364,3.6381,3.64,3.6643,3.6439,3.6451,3.6458,3.6982,3.699,3.6998,0,0,0,0,0,0,3.5949,3.5979,3.6228,3.611,3.614,3.6162,3.6236,3.6235,3.628,3.6316,3.632,3.6265,3.6359,3.6383,3.6545,3.6647,3.6456,3.6467,3.6973,3.6984,3.6994,3.713,0,0,0,0,0,0,3.5939,3.5977,3.6054,3.6112,3.6147,3.6369,3.6242,3.6243,3.63,3.6288,3.6357,3.6362,3.6356,3.6527,3.6557,3.666,3.6476,3.6964,3.6978,3.6991,3.7116,3.7144,3.7167,0,0,0,0,0,3.5927,3.6089,3.6059,3.609,3.6243,3.6375,3.6395,3.6383,3.6309,3.6387,3.641,3.636,3.6631,3.6545,3.6577,3.6685,3.6958,3.6974,3.699,3.7105,3.7138,3.7167,0,0,0,0,0,0,3.6045,3.6096,3.6063,3.6248,3.6308,3.6359,3.6457,3.6419,3.6503,3.6488,3.6471,3.6488,3.6656,3.6687,3.659,3.6886,3.6783,3.6806,3.6859,3.6891,3.6916,3.6905,3.6487,0,0,0,0,0,3.6092,3.6193,3.6233,3.6393,3.6424,3.6436,3.6493,3.6478,3.654,3.6566,3.66,3.6664,3.6763,3.6829,3.6922,3.712,3.7133,3.7211,3.7236,3.7257,3.7277,3.7382,3.7416,3.705,3.705,3.705,0,0,3.6191,3.6231,3.6297,3.6417,3.6462,3.6568,3.6458,3.6576,3.6655,3.6584,3.6737,3.6766,3.6836,3.7015,3.7097,3.7046,3.7381,3.7277,3.7293,3.7302,3.7402,3.7437,3.7468,3.7061,3.7059,3.7057,0,0,3.6425,3.6467,3.6602,3.6649,3.6716,3.6722,3.6755,3.6812,3.6827,3.698,3.6929,3.7024,3.7195,3.7246,3.7295,3.7546,3.7503,3.7577,3.771,3.7813,3.7842,3.7867,3.7956,3.7988,3.7597,3.7598,3.7598,0,3.6541,3.6697,3.6678,3.6799,3.6853,3.6791,3.6929,3.6975,3.7071,3.7111,3.7052,3.7264,3.7307,3.7497,3.7558,3.76,3.7637,3.757,3.7839,3.7864,3.7888,3.7972,3.8006,3.7606,3.7605,3.7604,3.7604,0,3.6835,3.6944,3.7046,3.7137,3.7203,3.7332,3.7333,3.7402,3.7381,3.7394,3.755,3.7599,3.77,3.7744,3.7727,3.7932,3.7898,3.784,3.7737,3.7932,3.801,3.8043,3.7618,3.7615,3.7613,3.7611,0,0,3.7149,3.7225,3.7263,3.7302,3.7371,3.7456,3.7582,3.7679,3.7738,3.7806,3.7911,3.8056,3.8002,3.8057,3.8044,3.8134,3.8329,3.8065,3.8066,3.8111,3.8557,3.8599,3.8637,3.83,3.8306,3.8311,3.855,0,3.7386,3.7603,3.7589,3.7794,3.7894,3.7836,3.7946,3.8001,3.8016,3.8104,3.8121,3.8224,3.8145,3.8177,3.8264,3.8287,3.8418,3.8269,3.8399,3.8403,3.8382,3.8679,3.8725,3.8948,3.8581,3.8586,3.859,0,3.7692,3.7767,3.7982,3.8033,3.8075,3.8174,3.8259,3.8345,3.8405,3.841,3.847,3.8442,3.857,3.8463,3.8639,3.8538,3.859,3.8609,3.8617,3.8628,3.8508,3.8697,3.9019,3.9053,3.8639,3.8635,3.8631,0,3.7898,3.8053,3.8201,3.8237,3.8301,3.8371,3.8402,3.8456,3.8514,3.859,3.8627,3.8719,3.8768,3.884,3.8837,3.8759,3.9015,3.8908,3.9022,3.9023,3.9079,3.9075,3.9413,3.9114,3.9114,3.9113,3.9112,0,3.8164,3.8298,3.8294,3.8385,3.8532,3.8514,3.8661,3.8684,3.8732,3.8827,3.8784,3.8874,3.8864,3.8956,3.8955,3.91,3.9123,3.9131,3.9129,3.9134,3.9133,3.9168,3.9152,3.9122,3.912,3.9118,3.9117,0,3.842,3.8422,3.8579,3.8626,3.8641,3.8747,3.8788,3.8874,3.8884,3.9005,3.9032,3.9049,3.9154,3.9158,3.928,3.9279,3.9455,3.9436,3.9434,3.943,3.9544,3.9533,3.9915,3.9964,3.9634,3.9637,3.964,0,3.8589,3.8689,3.8746,3.8805,3.8839,3.8935,3.8993,3.898,3.9042,3.9118,3.9195,3.9295,3.9374,3.9545,3.9569,3.9662,3.9644,3.9772,3.9658,3.966,3.9645,3.9638,3.9648,3.9794,3.9798,3.9801,3.9803,0,3.8889,3.8884,3.8968,3.9053,3.9122,3.9189,3.9251,3.9302,3.9296,3.9369,3.9474,3.9535,3.9657,3.9757,3.9846,3.9879,3.9841,3.9839,3.987,3.9876,3.987,3.9873,3.9493,3.983,3.9827,3.9825,3.9824,3.9823,3.9105,3.9191,3.9243,3.9338,3.9382,3.944,3.9523,3.9542,3.9629,3.9725,3.9712,3.983,3.9887,4.0002,4.0042,4.0134,4.009,4.0135,4.0147,4.0158,4.0169,3.9856,4.015,4.0149,4.0149,4.0148,4.0147,0,3.9401,3.9431,3.9518,3.9604,3.9679,3.9633,3.9699,3.9765,3.9867,3.9923,4.0,4.0121,4.0217,4.0248,4.0341,4.0409,4.0393,4.0434,4.0428,4.0436,4.0204,4.0167,4.0444,4.0444,4.0444,4.0444,4.0444,4.0444,3.9564,3.9706,3.9707,3.9871,3.99,4.0012,4.0053,4.0107,4.015,4.0286,4.0364,4.0382,4.0428,4.0524,4.061,4.0617,4.0653,4.07,4.07,4.0483,4.0453,4.0424,4.0389,4.0709,4.0709,4.0924,4.0926,4.0927]},{"header":{"parameterUnit":"m.s-1","parameterCategory":1,"la1":30.2991,"la2":30.254,"lo1":-89.0895,"lo2":-89.0444,"dy":0.0017,"dx":0.0017,"nx":28,"ny":28,"refTime":"2025-07-10T09:00:00:Z","depth":0,"parameterNumber":3,"parameterNumberName":"V-component_of_WINDS"},"data":[0,0,0,0,0,0,0,0,0,0,0,0,0,0,0,0,0,0,0,0,0,0,0,0,0,0,0,0,0,0,0,0,0,0,0,0,0,0,0,0,0,0,0,0,0,0,0,0,0,0,0,0,0,0,0,0,0,0,0.5952,0.5952,0,0.5931,0.5931,0.5931,0.5867,0.5865,0.5864,0.5863,0.5843,0.5844,0.5845,0,0,0,0,0,0,0,0,0,0,0,0,0,0.5937,0.5938,0.5952,0.5952,0.5952,0.5931,0.5931,0.5931,0.5867,0.5865,0.5864,0.5862,0.5843,0.5844,0.5845,0,0,0,0,0,0,0,0,0,0,0,0,0,0.5933,0.5938,0.5952,0.5917,0.5914,0.5931,0.5931,0.5931,0.5867,0.5865,0.5863,0.5861,0.5842,0.5844,0.5845,0.5895,0,0,0.5848,0.5849,0,0,0,0,0,0,0,0,0.5933,0.5934,0.5923,0.592,0.5916,0.5899,0.5919,0.5919,0.5868,0.5885,0.5863,0.586,0.5864,0.5863,0.5864,0.5894,0.5893,0.5849,0.5849,0.585,0.585,0,0,0,0,0,0,0,0.5934,0.5934,0.5944,0.5923,0.5919,0.5903,0.59,0.5918,0.5887,0.5884,0.5879,0.5877,0.5861,0.5863,0.5863,0.5893,0.5849,0.585,0.585,0.5851,0.5962,0.5964,0,0,0,0,0,0,0.5939,0.5935,0.5945,0.5943,0.592,0.5905,0.5902,0.5907,0.5886,0.5881,0.5879,0.5874,0.5862,0.5862,0.5862,0.5919,0.585,0.5851,0.5852,0.596,0.5962,0.5965,0,0,0,0,0,0,0.5939,0.594,0.5945,0.5938,0.5937,0.5907,0.5914,0.5908,0.5909,0.5883,0.5877,0.5886,0.586,0.586,0.5887,0.5917,0.5851,0.5853,0.5957,0.596,0.5964,0.6033,0,0,0,0,0,0,0.5939,0.5941,0.5959,0.5939,0.5938,0.5971,0.5916,0.5909,0.5911,0.5905,0.5888,0.5883,0.5858,0.5885,0.5888,0.5918,0.5854,0.5954,0.5959,0.5962,0.6028,0.6038,0.6047,0,0,0,0,0,0.5938,0.598,0.5961,0.5962,0.596,0.5973,0.5972,0.5942,0.5914,0.5932,0.5915,0.5884,0.5913,0.5889,0.5891,0.5922,0.5952,0.5957,0.5962,0.6024,0.6036,0.6047,0,0,0,0,0,0,0.6006,0.5977,0.5955,0.5991,0.5985,0.5962,0.5984,0.5957,0.5959,0.5953,0.5916,0.5913,0.5945,0.5935,0.5909,0.5968,0.5927,0.5933,0.5973,0.5985,0.5995,0.5997,0.5854,0,0,0,0,0,0.6025,0.6037,0.6011,0.6046,0.6044,0.6015,0.6019,0.5996,0.5988,0.5985,0.597,0.5964,0.5972,0.5978,0.5983,0.6026,0.6021,0.6048,0.6058,0.6066,0.6071,0.6093,0.6104,0.5981,0.5981,0.5981,0,0,0.6065,0.6051,0.6061,0.6059,0.6051,0.6065,0.6013,0.6029,0.6039,0.5988,0.6012,0.6001,0.5991,0.6026,0.604,0.6019,0.6104,0.6072,0.6079,0.608,0.6099,0.6111,0.6121,0.5985,0.5984,0.5983,0,0,0.6145,0.6135,0.6163,0.6156,0.6144,0.6124,0.6131,0.6112,0.6102,0.6125,0.6087,0.6098,0.6112,0.6107,0.6106,0.6182,0.6153,0.6185,0.6236,0.6257,0.6267,0.6275,0.6302,0.6313,0.6191,0.6191,0.6191,0,0.6196,0.6215,0.618,0.6199,0.6199,0.6153,0.618,0.6175,0.6167,0.6168,0.6144,0.616,0.6151,0.6183,0.6202,0.6203,0.6209,0.6187,0.6268,0.6276,0.6284,0.6309,0.6319,0.6195,0.6194,0.6194,0.6193,0,0.6278,0.6291,0.6315,0.6307,0.631,0.6333,0.6302,0.6309,0.6286,0.6269,0.6293,0.6279,0.6281,0.6287,0.6265,0.6316,0.6304,0.6275,0.6233,0.63,0.6323,0.6333,0.62,0.6199,0.6198,0.6197,0,0,0.6402,0.6373,0.6382,0.6378,0.6361,0.6371,0.6391,0.6392,0.6399,0.6394,0.6411,0.6423,0.6396,0.6395,0.6372,0.639,0.6451,0.6359,0.6358,0.6377,0.6507,0.6529,0.6541,0.6431,0.6433,0.6435,0.6508,0,0.6477,0.651,0.648,0.6519,0.6531,0.6486,0.6504,0.6496,0.648,0.6488,0.647,0.6479,0.6443,0.6442,0.6458,0.6441,0.6477,0.6435,0.6447,0.6448,0.6451,0.6553,0.6577,0.6647,0.6517,0.6518,0.6519,0,0.657,0.6568,0.6609,0.6589,0.6592,0.6609,0.6607,0.6615,0.6604,0.6591,0.659,0.6561,0.658,0.6538,0.6564,0.6536,0.6539,0.6531,0.6533,0.6534,0.6488,0.6557,0.6668,0.6679,0.6533,0.6532,0.6531,0,0.6656,0.6664,0.6689,0.6687,0.6664,0.6676,0.6667,0.6655,0.6657,0.6655,0.6656,0.6657,0.6658,0.6659,0.6631,0.6604,0.666,0.6617,0.665,0.6651,0.6665,0.6665,0.6779,0.6667,0.6666,0.6666,0.6666,0,0.6744,0.6771,0.6727,0.6743,0.6771,0.6736,0.6765,0.6751,0.674,0.6752,0.6713,0.6726,0.6688,0.6696,0.6674,0.6699,0.6699,0.669,0.6684,0.6693,0.6695,0.6695,0.669,0.6669,0.6668,0.6668,0.6667,0,0.6845,0.6817,0.6842,0.6817,0.6812,0.6834,0.6813,0.6827,0.6807,0.6823,0.6825,0.6795,0.6803,0.6775,0.6778,0.6763,0.68,0.6785,0.6803,0.6799,0.6834,0.6832,0.6954,0.6968,0.6846,0.6847,0.6848,0,0.6904,0.6923,0.69,0.6905,0.6898,0.6907,0.6908,0.6874,0.6877,0.6866,0.6881,0.6885,0.6887,0.6901,0.688,0.6882,0.6868,0.691,0.6868,0.6877,0.6869,0.6868,0.687,0.692,0.6921,0.6922,0.6923,0,0.701,0.6995,0.6998,0.6997,0.7,0.6998,0.6993,0.6999,0.6961,0.6967,0.6974,0.6975,0.6978,0.6983,0.698,0.6971,0.6942,0.6937,0.6945,0.6955,0.6965,0.696,0.6828,0.6934,0.6933,0.6932,0.6932,0.6931,0.7092,0.7106,0.7092,0.7098,0.709,0.7086,0.7097,0.7078,0.7083,0.7082,0.7062,0.7073,0.7061,0.7054,0.7048,0.7056,0.7036,0.7048,0.7051,0.7054,0.706,0.6963,0.7055,0.7055,0.7055,0.7054,0.7054,0,0.7196,0.7184,0.7189,0.7183,0.7187,0.7157,0.715,0.7155,0.7165,0.7156,0.7158,0.7166,0.717,0.7149,0.715,0.7161,0.7147,0.7162,0.7162,0.716,0.7078,0.7071,0.7173,0.7173,0.7173,0.7173,0.7173,0.7173,0.7251,0.7274,0.7257,0.7276,0.7264,0.7274,0.7272,0.7268,0.7261,0.7271,0.7274,0.726,0.7246,0.7245,0.7248,0.7241,0.7244,0.7264,0.7253,0.7177,0.7166,0.7155,0.7148,0.7265,0.7265,0.7334,0.7335,0.7335]}]]